TimeEDT,TemperatureF,Dew PointF,Humidity,Sea Level PressureIn,VisibilityMPH,Wind Direction,Wind SpeedMPH,Gust SpeedMPH,PrecipitationIn,Events,Conditions,WindDirDegrees,DateUTC
12:15 AM,64.4,42.1,44,30.19,10.0,WSW,4.6,-,N/A,,Clear,250,2013-05-28 04:15:00
12:35 AM,64.0,43.3,47,30.19,10.0,WSW,6.9,-,N/A,,Clear,250,2013-05-28 04:35:00
12:55 AM,63.7,43.7,48,30.19,10.0,WSW,5.8,-,N/A,,Clear,250,2013-05-28 04:55:00
1:15 AM,63.3,44.2,50,30.20,10.0,WSW,5.8,-,N/A,,Clear,250,2013-05-28 05:15:00
1:35 AM,62.6,44.8,52,30.20,10.0,West,4.6,-,N/A,,Clear,270,2013-05-28 05:35:00
1:55 AM,61.9,44.6,53,30.20,10.0,Calm,Calm,-,N/A,,Clear,0,2013-05-28 05:55:00
2:15 AM,61.5,44.8,54,30.20,10.0,Calm,Calm,-,N/A,,Clear,0,2013-05-28 06:15:00
2:35 AM,61.0,45.0,56,30.20,10.0,Calm,Calm,-,N/A,,Clear,0,2013-05-28 06:35:00
3:15 AM,60.1,45.1,58,30.19,10.0,WSW,3.5,-,N/A,,Clear,240,2013-05-28 07:15:00
3:35 AM,58.6,45.5,62,30.19,10.0,Calm,Calm,-,N/A,,Clear,0,2013-05-28 07:35:00
3:55 AM,59.0,45.5,61,30.19,10.0,Calm,Calm,-,N/A,,Clear,0,2013-05-28 07:55:00
4:15 AM,59.0,45.5,61,30.19,10.0,Calm,Calm,-,N/A,,Clear,0,2013-05-28 08:15:00
4:35 AM,57.0,45.5,65,30.19,10.0,Calm,Calm,-,N/A,,Clear,0,2013-05-28 08:35:00
4:55 AM,57.6,46.2,66,30.19,10.0,Calm,Calm,-,N/A,,Clear,0,2013-05-28 08:55:00
5:15 AM,56.8,46.4,68,30.19,10.0,Calm,Calm,-,N/A,,Clear,0,2013-05-28 09:15:00
5:35 AM,56.8,46.6,69,30.19,10.0,Calm,Calm,-,N/A,,Clear,0,2013-05-28 09:35:00
5:55 AM,56.3,46.4,69,30.19,10.0,Calm,Calm,-,N/A,,Clear,0,2013-05-28 09:55:00
6:15 AM,56.8,47.1,70,30.20,10.0,Calm,Calm,-,N/A,,Clear,0,2013-05-28 10:15:00
6:35 AM,58.1,47.7,68,30.21,10.0,Calm,Calm,-,N/A,,Clear,0,2013-05-28 10:35:00
6:55 AM,58.1,47.5,68,30.21,10.0,Calm,Calm,-,N/A,,Clear,0,2013-05-28 10:55:00
7:15 AM,59.0,47.5,66,30.21,10.0,Calm,Calm,-,N/A,,Clear,0,2013-05-28 11:15:00
7:35 AM,60.8,48.0,63,30.21,10.0,Calm,Calm,-,N/A,,Clear,0,2013-05-28 11:35:00
7:55 AM,61.7,48.0,61,30.21,10.0,Calm,Calm,-,N/A,,Clear,0,2013-05-28 11:55:00
8:15 AM,63.0,47.7,57,30.21,10.0,Calm,Calm,-,N/A,,Clear,0,2013-05-28 12:15:00
8:35 AM,65.7,47.7,52,30.21,10.0,Calm,Calm,-,N/A,,Clear,0,2013-05-28 12:35:00
8:55 AM,66.2,46.8,50,30.22,10.0,Calm,Calm,-,N/A,,Clear,0,2013-05-28 12:55:00
9:15 AM,66.9,48.2,51,30.22,10.0,Calm,Calm,-,N/A,,Clear,0,2013-05-28 13:15:00
9:35 AM,67.5,48.7,51,30.22,10.0,Calm,Calm,-,N/A,,Mostly Cloudy,0,2013-05-28 13:35:00
9:55 AM,68.7,48.4,48,30.22,10.0,Calm,Calm,-,N/A,,Scattered Clouds,0,2013-05-28 13:55:00
10:15 AM,68.9,48.7,49,30.22,10.0,Calm,Calm,-,N/A,,Light Drizzle,0,2013-05-28 14:15:00
10:35 AM,67.8,51.1,55,30.22,10.0,Calm,Calm,-,N/A,Rain,Light Rain,0,2013-05-28 14:35:00
10:55 AM,66.2,51.4,59,30.23,10.0,South,3.5,-,N/A,Rain,Light Rain,190,2013-05-28 14:55:00
11:15 AM,65.7,52.7,63,30.23,10.0,South,3.5,-,0.01,Rain,Rain,180,2013-05-28 15:15:00
11:35 AM,64.9,52.0,63,30.23,10.0,South,3.5,-,0.01,,Drizzle,190,2013-05-28 15:35:00
11:55 AM,64.4,51.3,62,30.23,10.0,Calm,Calm,-,0.01,Rain,Rain,0,2013-05-28 15:55:00
12:15 PM,63.7,53.1,68,30.23,7.0,South,3.5,-,0.01,Rain,Rain,190,2013-05-28 16:15:00
12:35 PM,63.0,52.7,69,30.22,10.0,SE,6.9,-,0.01,Rain,Rain,140,2013-05-28 16:35:00
12:55 PM,62.1,54.7,77,30.21,10.0,ESE,4.6,-,0.02,Rain,Light Rain,120,2013-05-28 16:55:00
1:15 PM,61.9,54.3,76,30.20,7.0,ESE,4.6,-,0.01,Rain,Light Rain,110,2013-05-28 17:15:00
1:35 PM,61.7,55.0,79,30.20,7.0,ESE,5.8,-,0.02,Rain,Light Rain,120,2013-05-28 17:35:00
1:55 PM,61.2,55.8,82,30.19,5.0,ESE,6.9,-,0.03,Rain,Light Rain,120,2013-05-28 17:55:00
2:15 PM,60.6,53.8,78,30.18,7.0,SE,9.2,-,0.01,Rain,Light Rain,140,2013-05-28 18:15:00
2:35 PM,59.4,53.6,81,30.17,7.0,ESE,5.8,-,0.02,Rain,Rain,110,2013-05-28 18:35:00
2:55 PM,59.2,53.8,82,30.19,5.0,Calm,Calm,-,0.03,Rain,Light Rain,0,2013-05-28 18:55:00
3:15 PM,58.3,54.5,87,30.19,3.0,ESE,5.8,-,0.06,Rain,Rain,110,2013-05-28 19:15:00
3:35 PM,58.3,55.6,91,30.19,3.0,East,5.8,-,0.12,Rain,Rain,90,2013-05-28 19:35:00
3:55 PM,58.3,55.9,92,30.17,3.0,East,8.1,-,0.16,Rain,Light Rain,100,2013-05-28 19:55:00
4:15 PM,58.8,56.7,93,30.18,4.0,NNE,5.8,-,0.01,Rain,Light Rain,30,2013-05-28 20:15:00
4:35 PM,58.5,56.7,94,30.18,4.0,NNE,8.1,-,0.03,Rain,Light Rain,30,2013-05-28 20:35:00
4:55 PM,59.2,57.6,94,30.17,2.5,ENE,9.2,-,0.11,Rain,Light Rain,70,2013-05-28 20:55:00
5:15 PM,59.4,57.7,94,30.17,4.0,ENE,5.8,-,0.01,Rain,Rain,60,2013-05-28 21:15:00
5:35 PM,59.9,58.3,94,30.17,4.0,ENE,6.9,-,0.01,,Overcast,60,2013-05-28 21:35:00
5:55 PM,60.3,58.6,94,30.16,3.0,East,4.6,-,0.01,,Light Drizzle,80,2013-05-28 21:55:00
6:15 PM,60.3,58.8,95,30.15,4.0,ESE,5.8,-,N/A,,Overcast,110,2013-05-28 22:15:00
6:35 PM,60.1,58.5,94,30.15,5.0,ESE,4.6,-,N/A,,Overcast,120,2013-05-28 22:35:00
6:55 PM,59.9,58.5,95,30.15,4.0,ESE,4.6,-,N/A,,Overcast,110,2013-05-28 22:55:00
7:15 PM,60.1,58.6,95,30.15,4.0,Calm,Calm,-,N/A,,Overcast,0,2013-05-28 23:15:00
7:35 PM,60.3,58.8,95,30.15,5.0,Calm,Calm,-,N/A,Rain,Rain,0,2013-05-28 23:35:00
7:55 PM,60.3,59.0,96,30.14,4.0,Calm,Calm,-,N/A,,Light Drizzle,0,2013-05-28 23:55:00
8:15 PM,60.3,59.0,96,30.14,5.0,Calm,Calm,-,N/A,,Overcast,0,2013-05-29 00:15:00
8:35 PM,60.4,59.0,95,30.14,4.0,Calm,Calm,-,N/A,,Overcast,0,2013-05-29 00:35:00
8:55 PM,60.6,59.2,95,30.14,3.0,Calm,Calm,-,N/A,,Overcast,0,2013-05-29 00:55:00
9:15 PM,60.4,59.2,96,30.14,3.0,Calm,Calm,-,N/A,,Overcast,0,2013-05-29 01:15:00
9:35 PM,60.8,59.4,95,30.14,1.5,NE,3.5,-,N/A,,Overcast,40,2013-05-29 01:35:00
9:55 PM,60.4,59.4,96,30.14,1.5,East,3.5,-,N/A,,Overcast,90,2013-05-29 01:55:00
10:15 PM,60.3,59.2,96,30.14,1.2,East,3.5,-,N/A,,Overcast,100,2013-05-29 02:15:00
10:35 PM,60.3,59.4,97,30.13,1.0,SE,3.5,-,N/A,,Overcast,130,2013-05-29 02:35:00
10:55 PM,60.3,59.4,97,30.14,1.0,Calm,Calm,-,N/A,,Overcast,0,2013-05-29 02:55:00
11:15 PM,60.1,59.2,97,30.14,0.5,Calm,Calm,-,N/A,Fog,Fog,0,2013-05-29 03:15:00
11:35 PM,60.3,59.4,97,30.14,0.5,Calm,Calm,-,N/A,Fog,Fog,0,2013-05-29 03:35:00
11:55 PM,60.3,59.5,97,30.13,0.5,Calm,Calm,-,N/A,Fog,Fog,0,2013-05-29 03:55:00